Startseite
Über Mich
AHP4
Galerie
Sehschlangen
Tourenbuch
Bookmarks
Elektronik
Bewertung
Geschichten
[Tagesmessung] [Jahreswerte] [Information]

Messwerte vom 01.05.2022

Die letzten Messwerte von 23:58:46 Uhr:
KategorieMesswert
Temperatur [°C]6
Luftdruck [mBar]1006
Sonneneinstrahlung0
Wind [km/h]0 aus Nord
Niederschlag [l/m²]0
rel.Luftfeucht.87.6%
CO2 [ppm]790

Diagramme
Messwerte vom 01.05.2022
Tagesaggregation
KategorieMinimumMaximumSchnittSumme
Temperatur [°C]61911.5271
Luftdruck [mBar]100610091006.8458
Sonneneinstrahlung242121.9438
Wind [km/h]11
rF [%]38.588.367.21
Niederschlag [l/m²]0
CO2 [ppm]413808497.1
Einordnung alsVegetationstag

Messungen an benachbarten Tagen: Zur Jahresaggregation 2022
Tabelle aller Messwerte
UhrzeitTemperatur [°C]Luftdruck [mBar]SonneWind [km/h]RichtungRegen [l/m²]rF [%]CO2 [ppm]
00:01:47 10 1007 0 0 NW 0 68.8 424
00:04:46 10 1007 0 0 SO 0 69 416
00:07:46 10 1008 0 0 S 0 69.9 427
00:10:49 10 1007 0 0 S 0 69.9 422
00:13:47 10 1007 0 4 N 0 69.9 421
00:16:48 10 1007 0 2 W 0 69.8 424
00:19:49 10 1007 0 2 NW 0 69.1 428
00:22:47 10 1007 0 0 N 0 68.6 434
00:25:45 10 1006 0 1 N 0 68 427
00:28:48 10 1007 0 1 W 0 67.8 428
00:31:44 10 1007 0 0 N 0 67.7 424
00:34:49 10 1007 0 6 NW 0 67.6 430
00:37:50 10 1006 0 2 NW 0 67.8 431
00:40:49 10 1007 0 2 N 0 67.8 428
00:43:49 10 1007 0 2 NW 0 67.6 427
00:46:48 10 1007 0 4 NW 0 67.6 428
00:49:48 10 1007 0 2 W 0 67.3 425
00:52:47 10 1007 0 3 NW 0 67.5 424
00:55:48 10 1008 0 1 NO 0 67.6 425
00:58:47 10 1007 0 0 O 0 67.7 424
01:01:45 10 1008 0 0 N 0 67.6 422
01:04:53 10 1007 0 1 N 0 67.8 422
01:07:49 10 1007 0 2 N 0 67.7 424
01:10:46 10 1007 0 3 N 0 67.7 419
01:13:48 10 1007 0 0 NO 0 68 421
01:16:48 10 1008 0 2 SW 0 68.5 418
01:19:47 10 1008 0 2 W 0 68.4 421
01:22:48 10 1007 0 1 W 0 68.6 419
01:25:46 10 1007 0 3 NW 0 68.6 422
01:28:46 10 1008 0 1 O 0 68.9 425
01:31:48 10 1008 0 2 NW 0 69.1 433
01:34:47 10 1007 0 3 NW 0 69.2 427
01:37:46 10 1007 0 1 O 0 69.6 428
01:40:45 10 1006 0 1 N 0 69.7 428
01:43:46 10 1006 0 1 N 0 70 431
01:46:47 10 1007 0 4 NW 0 70 425
01:49:46 10 1006 0 0 W 0 70.3 428
01:52:47 10 1007 0 1 NW 0 70.6 430
01:55:45 10 1007 0 0 N 0 70.3 430
01:58:47 10 1007 0 0 O 0 70.5 422
02:01:48 10 1007 0 0 NW 0 70.8 430
02:04:46 10 1007 0 0 NO 0 70.4 428
02:07:49 9 1007 0 0 SW 0 70.7 434
02:10:46 9 1007 0 0 NW 0 70.8 433
02:13:47 9 1006 0 0 N 0 70.8 431
02:16:45 9 1008 0 1 N 0 71.1 436
02:19:48 9 1007 0 0 NO 0 71 434
02:22:48 9 1007 0 0 NO 0 71 428
02:25:47 9 1007 0 0 NO 0 71.3 424
02:28:46 9 1007 0 0 NO 0 71.7 425
02:31:45 9 1007 0 0 N 0 71.8 430
02:34:46 9 1007 0 0 N 0 71.8 433
02:37:47 9 1007 0 0 N 0 72 427
02:40:47 9 1006 0 1 N 0 72.2 425
02:43:46 9 1007 0 0 N 0 72.5 428
02:46:46 9 1008 0 0 N 0 72.5 431
02:49:48 9 1007 0 0 N 0 72.3 431
02:52:48 9 1007 0 0 N 0 72.2 428
02:55:45 9 1007 0 0 N 0 72.2 434
02:58:47 9 1006 0 0 N 0 73.2 433
03:01:47 9 1007 0 0 N 0 73.6 436
03:04:46 9 1007 0 0 N 0 74.1 439
03:07:46 9 1008 0 0 N 0 74.6 431
03:10:48 9 1007 0 0 NW 0 74.7 434
03:13:46 9 1008 0 0 NW 0 74.8 425
03:16:46 9 1007 0 0 NW 0 74.8 427
03:19:48 9 1007 0 0 NW 0 75 428
03:22:48 9 1007 0 0 NW 0 75.5 431
03:25:47 9 1007 0 0 NW 0 75.7 431
03:28:50 9 1007 0 0 NW 0 75.9 434
03:31:48 9 1007 0 0 W 0 75.9 431
03:34:46 9 1007 0 0 W 0 76.3 436
03:37:50 9 1006 0 0 NW 0 76.5 437
03:40:50 9 1006 0 0 SW 0 76.5 437
03:43:47 9 1007 0 0 NO 0 76.2 431
03:46:47 9 1007 0 1 N 0 76.8 427
03:49:47 9 1007 0 0 NW 0 77 434
03:52:47 9 1007 0 1 NO 0 77.1 443
03:55:46 9 1007 0 2 NW 0 77.2 442
03:58:46 9 1007 0 0 0 76.8 437
04:01:46 9 1007 0 1 W 0 76.3 431
04:05:11 9 1007 0 2 N 0 76.4 431
04:07:46 9 1007 0 3 N 0 76.5 436
04:10:47 9 1006 0 7 N 0 76.6 436
04:13:46 9 1008 0 3 NW 0 76.7 430
04:16:49 9 1007 0 2 W 0 77 429
04:19:46 9 1007 0 4 NW 0 77 431
04:22:46 9 1006 0 3 NW 0 77 434
04:25:46 9 1006 0 2 W 0 76.9 433
04:28:46 9 1006 0 2 N 0 76.9 435
04:31:46 9 1007 0 0 NO 0 77 431
04:34:48 9 1007 0 1 NW 0 76.6 431
04:37:45 9 1007 0 3 W 0 76.6 435
04:40:46 9 1008 0 2 NW 0 76.7 434
04:43:47 9 1007 0 1 NW 0 76.7 438
04:46:48 9 1007 0 1 NW 0 76.7 442
04:49:45 9 1006 0 0 NO 0 76.9 444
04:52:48 9 1007 0 1 W 0 76.7 442
04:55:48 9 1008 0 1 NW 0 76.4 439
04:58:46 9 1007 0 0 O 0 76.5 433
05:01:45 9 1007 0 0 N 0 77.1 430
05:04:46 9 1007 0 0 N 0 77.6 434
05:07:46 9 1006 0 0 N 0 77.5 436
05:10:48 9 1007 0 0 N 0 77.5 432
05:13:47 9 1007 0 0 N 0 77.8 436
05:16:46 9 1007 0 0 N 0 77.9 442
05:19:45 8 1007 0 0 N 0 78.5 436
05:22:45 8 1007 0 0 N 0 78.4 436
05:25:46 8 1007 0 1 W 0 78.5 442
05:28:45 8 1007 0 3 W 0 78.8 446
05:31:46 8 1007 0 0 N 0 79.2 445
05:34:48 8 1007 3 0 NW 0 79 444
05:37:47 8 1007 4 0 NW 0 78.8 442
05:40:47 8 1007 6 0 NW 0 78.7 442
05:43:46 8 1006 9 0 NW 0 78.6 439
05:46:47 8 1007 13 0 NW 0 78.4 445
05:49:48 8 1007 17 0 NO 0 78.4 443
05:52:46 8 1006 24 1 N 0 78.7 442
05:55:47 9 1006 33 1 O 0 78.8 436
05:58:48 9 1007 43 1 NO 0 78.8 437
06:01:47 9 1007 51 2 NW 0 78.5 439
06:04:47 9 1006 57 1 N 0 78.2 439
06:07:47 9 1007 62 1 N 0 77.9 436
06:10:45 9 1006 65 0 N 0 77.6 436
06:13:46 9 1006 75 0 S 0 77.5 436
06:16:45 9 1007 88 1 N 0 77.3 434
06:19:46 9 1007 97 2 N 0 77.7 434
06:22:49 9 1007 100 1 N 0 78 433
06:25:48 9 1006 103 0 NO 0 78 436
06:28:46 9 1007 114 1 N 0 78 445
06:31:48 9 1006 118 0 NO 0 77.9 445
06:34:49 9 1007 121 0 NO 0 77.9 439
06:37:50 9 1007 124 4 NW 0 78 439
06:40:47 9 1006 127 2 O 0 78.3 436
06:43:46 9 1007 132 1 0 78.3 442
06:46:47 9 1006 134 0 N 0 78.5 448
06:49:46 9 1007 136 6 N 0 78.6 448
06:52:48 9 1007 136 5 NW 0 78.9 451
06:55:49 9 1007 135 1 SW 0 78.9 442
06:58:48 9 1007 137 3 NW 0 78.9 445
07:01:46 9 1007 140 1 SW 0 79 442
07:04:49 9 1008 142 0 N 0 78.8 436
07:07:48 9 1007 146 0 NO 0 78.8 439
07:10:50 9 1007 143 2 NW 0 79 434
07:13:46 9 1007 143 0 O 0 79 436
07:16:47 9 1006 148 1 NO 0 78.7 434
07:19:47 9 1007 149 1 N 0 78.6 436
07:22:50 9 1007 152 0 NO 0 78.9 434
07:25:48 9 1007 156 0 NW 0 78.8 436
07:28:48 9 1007 155 0 NW 0 78.5 433
07:31:47 9 1007 157 2 S 0 78.2 434
07:34:48 9 1007 171 0 S 0 78.2 437
07:37:47 9 1007 174 0 SO 0 78.2 444
07:40:48 9 1007 169 0 NW 0 78.5 445
07:43:47 9 1009 154 0 NW 0 78.4 447
07:46:49 9 1008 155 0 S 0 78.5 439
07:49:47 9 1008 164 0 NW 0 78.4 430
07:52:46 9 1008 169 1 N 0 78.1 431
07:55:47 9 1008 169 3 O 0 78.3 434
07:58:50 9 1007 172 2 NW 0 79.1 442
08:01:46 9 1009 175 2 N 0 79.5 439
08:04:47 9 1007 177 0 O 0 79.5 439
08:07:47 9 1008 176 0 O 0 79.5 436
08:10:45 9 1008 173 0 O 0 79.5 440
08:13:47 9 1008 178 0 O 0 79.5 433
08:16:50 10 1007 183 0 SO 0 79.3 442
08:19:49 10 1008 182 0 NW 0 79.3 436
08:22:48 10 1007 180 0 NW 0 79.2 430
08:25:48 10 1008 183 2 NW 0 79.2 436
08:28:47 10 1008 187 0 NW 0 78.6 439
08:31:50 10 1008 189 0 SO 0 78.5 439
08:34:48 10 1008 195 2 NW 0 78.7 436
08:37:50 10 1008 200 0 NW 0 78.8 442
08:40:51 10 1008 204 1 NW 0 78.6 439
08:43:48 10 1008 204 0 NO 0 78.4 439
08:46:51 10 1008 198 0 NO 0 78.1 439
08:49:48 10 1008 202 3 N 0 78.3 440
08:52:48 10 1008 207 1 N 0 77.5 442
08:55:49 10 1008 210 0 NW 0 77.2 433
08:58:49 10 1008 208 0 N 0 77.2 436
09:01:48 10 1007 207 2 N 0 77.5 436
09:04:47 10 1008 206 2 N 0 77 439
09:07:49 10 1008 206 0 NO 0 76.1 433
09:10:49 11 1008 201 2 N 0 76.4 437
09:13:46 11 1008 198 1 N 0 76.8 437
09:16:47 11 1008 198 0 N 0 76.2 436
09:19:50 11 1008 200 2 NW 0 75.9 439
09:22:48 11 1008 205 1 N 0 75.7 442
09:25:47 11 1008 212 0 N 0 76 445
09:28:49 11 1008 211 2 NW 0 76.2 440
09:31:50 11 1008 206 2 NW 0 75.8 439
09:34:47 11 1008 203 0 N 0 75.5 442
09:37:52 11 1008 204 0 SO 0 75.2 437
09:40:48 12 1008 202 0 N 0 75 436
09:43:47 11 1008 198 1 SW 0 74.1 431
09:46:48 11 1009 196 0 SO 0 73.5 434
09:49:48 11 1009 196 0 SO 0 74.2 427
09:52:49 11 1008 199 0 SO 0 74.5 430
09:55:50 11 1008 201 0 NW 0 74.4 436
09:58:49 11 1008 201 0 NW 0 74.4 436
10:01:48 11 1008 203 1 W 0 74.8 436
10:04:48 11 1008 204 0 S 0 75.1 436
10:07:48 12 1008 205 0 S 0 75.2 433
10:10:46 12 1009 207 0 S 0 74.9 433
10:13:49 12 1009 210 1 S 0 74.4 430
10:16:50 12 1008 210 1 SW 0 74 427
10:19:50 12 1008 212 1 SW 0 73.6 431
10:22:47 12 1009 212 1 S 0 74 428
10:25:49 12 1009 214 0 NW 0 74.5 436
10:28:50 12 1008 216 1 NW 0 74.6 434
10:31:48 12 1008 218 0 S 0 75.3 439
10:34:50 12 1008 219 1 NW 0 75.2 439
10:37:46 12 1008 221 0 O 0 75.3 445
10:40:50 12 1008 221 1 O 0 73.6 437
10:43:47 12 1008 219 0 S 0 72.8 445
10:46:47 13 1008 217 0 S 0 72.7 440
10:49:51 13 1008 215 0 O 0 72 439
10:52:47 13 1009 212 2 SW 0 71.3 433
10:55:48 13 1008 210 3 W 0 70.3 428
10:58:47 13 1008 209 2 W 0 70.8 427
11:01:49 13 1008 211 1 W 0 71.4 428
11:04:47 13 1008 209 0 S 0 71 428
11:07:47 12 1008 206 2 W 0 71.4 419
11:10:48 12 1009 203 1 SW 0 71.9 428
11:13:52 12 1008 200 1 W 0 72.2 428
11:16:48 12 1008 198 4 W 0 72.8 431
11:19:50 12 1008 201 3 W 0 73 436
11:22:47 12 1008 205 4 W 0 73.6 442
11:25:49 12 1009 208 2 W 0 74.3 439
11:28:47 12 1009 208 4 W 0 74.9 439
11:31:47 12 1008 212 2 W 0 75.5 430
11:34:46 12 1009 216 1 W 0 75.7 427
11:37:48 12 1008 217 3 W 0 75.3 434
11:40:47 12 1009 217 4 W 0 75.6 433
11:43:46 12 1009 217 2 W 0 76 430
11:46:44 12 1008 216 1 W 0 75.9 433
11:49:47 13 1008 214 2 S 0 75.2 431
11:52:51 13 1009 213 0 S 0 73.5 433
11:55:50 13 1008 213 0 SO 0 73.6 437
11:58:49 13 1008 214 2 NW 0 73.9 442
12:01:49 13 1008 214 0 NW 0 73 436
12:04:47 13 1008 212 4 N 0 73.4 434
12:07:51 12 1008 211 0 SO 0 72.9 431
12:10:51 12 1008 212 0 S 0 73.3 431
12:13:47 13 1009 216 0 0 73.6 434
12:16:46 13 1008 219 0 0 73.8 428
12:19:48 13 1008 223 3 W 0 72.9 424
12:22:50 13 1008 224 1 NW 0 72.9 434
12:25:48 14 1008 226 0 W 0 73.1 436
12:28:50 14 1008 227 3 W 0 69.9 439
12:31:51 14 1008 227 0 NW 0 69.9 442
12:34:47 15 1008 227 1 W 0 66.4 442
12:37:49 14 1008 225 1 SO 0 66.4 436
12:40:48 15 1008 225 0 SW 0 67 433
12:43:48 15 1008 225 4 NW 0 66.6 430
12:46:48 15 1008 226 0 S 0 64 433
12:49:48 15 1008 227 1 NW 0 63.5 430
12:52:49 15 1008 227 4 NW 0 63.6 430
12:55:48 15 1008 226 1 N 0 61.8 430
12:58:50 15 1008 224 3 N 0 59 437
13:01:48 15 1007 225 4 O 0 56.6 428
13:04:49 15 1006 226 0 O 0 58.6 425
13:07:46 15 1007 227 0 NO 0 58.6 421
13:10:49 16 1008 228 0 S 0 55.8 418
13:13:47 16 1007 229 0 O 0 53.7 427
13:16:46 16 1008 231 3 W 0 52.8 433
13:19:48 16 1007 231 7 SW 0 54.4 430
13:22:48 17 1007 229 3 W 0 54 425
13:25:49 17 1008 232 4 SO 0 52.6 424
13:28:47 16 1007 234 5 NO 0 51 424
13:31:48 16 1008 235 1 NW 0 50.1 418
13:34:49 17 1007 235 1 S 0 51 422
13:37:50 18 1007 233 7 NW 0 50.6 416
13:40:47 18 1007 234 1 SW 0 48.9 413
13:43:48 18 1008 233 1 N 0 44.4 413
13:46:47 17 1008 234 2 NW 0 44.5 421
13:49:49 17 1007 234 0 O 0 48.6 416
13:52:47 17 1006 235 7 N 0 47.2 419
13:55:51 17 1007 235 2 NW 0 46.8 425
13:58:48 17 1006 235 1 N 0 47.9 424
14:01:50 17 1007 235 2 SW 0 48.1 422
14:04:49 17 1006 235 8 NW 0 46.8 419
14:07:50 16 1007 237 7 NW 0 43.6 422
14:10:47 16 1006 237 1 NW 0 43.5 425
14:13:48 16 1007 238 2 NO 0 44.9 422
14:16:48 16 1007 238 3 N 0 46 416
14:19:50 16 1007 239 2 SO 0 49 418
14:22:49 17 1006 240 0 SW 0 47.5 422
14:25:47 17 1007 239 4 SO 0 45.3 430
14:28:46 17 1006 237 6 0 43 431
14:31:49 17 1007 240 7 N 0 43.9 425
14:34:30 16 1007 240 4 N 0 40 424
14:37:46 17 1007 240 1 O 0 41.3 421
14:40:47 17 1006 242 4 NO 0 41.6 427
14:43:49 17 1006 241 3 SO 0 46.1 431
14:46:47 18 1006 241 11 SO 0 44.2 434
14:49:48 19 1007 238 3 O 0 40.6 433
14:52:48 18 1007 241 3 NO 0 41.7 437
14:55:48 18 1006 241 4 NO 0 42.3 431
14:58:47 19 1007 239 2 N 0 41.5 430
15:01:47 19 1006 237 1 O 0 42.4 433
15:04:48 19 1007 233 4 SW 0 42.5 427
15:07:46 19 1007 230 3 O 0 41.7 425
15:10:50 19 1007 229 9 SW 0 40.5 428
15:13:48 19 1007 228 5 SO 0 41 433
15:16:30 18 1007 230 3 S 0 40 433
15:19:48 19 1006 231 2 SW 0 40.7 433
15:22:50 19 1006 232 0 N 0 40.3 436
15:25:48 19 1006 232 5 S 0 40.7 434
15:28:50 19 1006 234 0 NW 0 42 430
15:31:49 19 1006 233 4 O 0 38.5 427
15:34:49 18 1006 231 2 SO 0 39.4 430
15:37:32 18 1006 233 0 SO 0 40 430
15:40:48 17 1006 235 1 SO 0 42.9 430
15:43:47 17 1006 234 5 N 0 43 430
15:46:48 17 1006 233 1 O 0 42.9 431
15:49:47 17 1006 231 2 O 0 43.6 428
15:52:48 17 1006 230 3 N 0 43.9 427
15:55:49 17 1006 232 4 NO 0 45.6 424
15:58:47 17 1006 236 1 N 0 45.6 423
16:01:46 17 1006 238 2 S 0 44.4 419
16:04:49 18 1006 239 5 W 0 40.8 421
16:07:49 18 1006 241 5 NW 0 40.1 427
16:10:48 18 1006 240 7 N 0 40.1 427
16:13:49 18 1006 238 5 NW 0 40.6 431
16:16:49 18 1006 239 0 NW 0 41.6 430
16:19:51 18 1006 240 0 NW 0 41.2 428
16:22:47 18 1006 238 5 N 0 42 427
16:25:50 17 1006 232 9 NW 0 41 428
16:28:49 17 1006 229 1 SO 0 41.8 422
16:31:47 17 1006 227 0 N 0 42.8 430
16:34:46 16 1006 226 1 O 0 44.1 427
16:37:48 16 1006 226 2 NW 0 45 430
16:40:46 16 1006 229 4 0 45.2 425
16:43:48 16 1006 232 3 N 0 46.5 428
16:46:49 16 1006 232 2 N 0 46.3 430
16:49:47 16 1006 230 4 O 0 45.8 430
16:52:48 17 1006 198 1 O 0 45.7 422
16:55:48 17 1006 196 6 SO 0 46.1 424
16:58:47 17 1006 192 1 SO 0 46.7 419
17:01:49 17 1006 188 2 SO 0 46.6 430
17:04:49 16 1006 185 1 N 0 45.6 431
17:07:48 16 1006 185 5 SW 0 45.6 430
17:10:48 16 1006 181 0 SO 0 46.1 422
17:13:51 16 1006 178 8 N 0 47.5 422
17:16:45 16 1006 176 3 N 0 48 419
17:19:47 15 1006 216 1 O 0 48 421
17:22:48 15 1006 213 2 NW 0 47.9 419
17:25:49 15 1006 211 0 NO 0 49.7 419
17:28:48 15 1006 207 2 S 0 49.6 427
17:31:46 15 1006 204 1 O 0 49 435
17:34:46 15 1006 201 1 0 49.6 439
17:37:48 15 1006 197 2 O 0 49.3 443
17:40:48 15 1006 198 0 O 0 49.8 451
17:43:48 15 1006 197 4 NW 0 49.8 457
17:46:46 14 1006 196 3 N 0 50.4 466
17:49:47 14 1006 197 0 O 0 50.6 483
17:52:45 14 1006 199 3 N 0 51.7 492
17:55:47 14 1006 198 2 NO 0 51.6 503
17:58:46 14 1006 195 5 N 0 51.7 507
18:01:50 14 1006 194 5 NW 0 52.2 507
18:04:46 14 1006 191 4 NO 0 52.7 512
18:07:49 14 1006 188 0 NO 0 52.7 513
18:10:50 14 1006 187 0 NO 0 53.3 518
18:13:49 14 1006 188 2 N 0 52.7 524
18:16:47 14 1006 188 1 N 0 53 530
18:19:47 14 1006 191 5 W 0 53 536
18:22:50 14 1006 196 0 NW 0 53 550
18:25:48 14 1006 202 3 N 0 53.5 558
18:28:45 14 1006 204 1 N 0 53.1 561
18:31:49 14 1006 205 0 N 0 52.9 565
18:34:47 14 1006 206 1 S 0 53.2 567
18:37:49 14 1006 206 0 O 0 53.2 568
18:40:44 14 1006 205 2 0 53.3 574
18:43:48 14 1006 207 1 NO 0 53 580
18:46:50 15 1006 209 0 NO 0 53.8 576
18:49:47 15 1006 206 1 SO 0 54.4 589
18:52:47 15 1006 202 1 N 0 54.9 592
18:55:51 15 1006 200 0 SO 0 55 594
18:58:48 15 1006 198 0 SO 0 55.2 592
19:01:50 14 1006 196 0 SO 0 54.8 598
19:04:48 14 1006 196 0 O 0 54.7 612
19:07:47 14 1006 199 0 O 0 55.4 611
19:10:49 14 1006 199 1 NO 0 56.2 616
19:13:48 14 1006 195 0 NO 0 55.3 617
19:16:49 14 1006 193 0 NO 0 55.1 621
19:19:49 14 1006 190 0 O 0 54.9 618
19:22:47 14 1006 187 1 N 0 55.8 620
19:25:47 14 1006 186 0 O 0 55.5 624
19:28:49 14 1006 185 1 NO 0 55.1 633
19:31:48 14 1006 186 0 NO 0 55.7 633
19:34:48 13 1006 187 2 N 0 56.3 638
19:37:48 13 1006 191 0 O 0 56.9 630
19:40:48 13 1006 193 0 O 0 57.2 633
19:43:50 13 1006 195 0 O 0 58 636
19:46:47 13 1006 195 0 O 0 58.1 638
19:49:48 13 1006 193 0 O 0 58.3 641
19:52:47 13 1006 188 0 O 0 58.5 649
19:55:47 13 1006 186 0 NO 0 59 661
19:58:50 13 1006 181 0 NO 0 60.6 660
20:01:50 12 1006 173 0 NO 0 60.9 673
20:04:49 12 1006 166 0 NO 0 61.1 667
20:07:49 12 1006 159 0 NO 0 61 667
20:10:48 12 1006 152 0 NO 0 61.1 655
20:13:48 12 1006 143 0 NO 0 61.7 662
20:16:47 12 1006 135 0 NO 0 62.2 661
20:19:49 12 1006 126 0 NO 0 62.3 676
20:22:48 11 1006 117 0 NO 0 62.7 679
20:25:48 11 1006 105 0 NO 0 62.7 677
20:28:48 11 1006 98 0 NO 0 62.7 683
20:31:51 11 1006 92 0 NO 0 62.9 685
20:34:51 11 1006 86 0 NO 0 63.2 698
20:37:47 11 1006 79 0 NO 0 63.4 695
20:40:49 10 1006 74 0 NO 0 64.2 702
20:43:49 10 1006 68 0 NO 0 64.8 697
20:46:48 10 1006 60 0 NO 0 64.9 703
20:49:49 10 1006 51 0 NO 0 65.9 704
20:52:47 10 1006 42 0 NO 0 65.7 706
20:55:48 10 1006 33 0 NO 0 67.5 715
20:58:49 9 1006 25 0 NO 0 68.2 718
21:01:48 9 1006 18 0 NO 0 68.4 715
21:04:46 9 1006 13 0 NO 0 69.1 717
21:07:48 9 1006 10 0 NO 0 71.6 723
21:10:47 9 1006 7 0 NO 0 73.4 723
21:13:47 9 1006 5 0 NO 0 73.4 725
21:16:46 9 1006 4 0 NO 0 73.9 735
21:19:46 9 1006 3 0 NO 0 74.7 733
21:22:45 9 1006 3 0 NO 0 75.3 733
21:25:46 9 1006 3 0 NO 0 75.2 739
21:28:47 8 1006 0 0 NO 0 75.5 743
21:31:47 8 1006 0 0 NO 0 76 746
21:34:46 8 1006 0 0 NO 0 76.5 746
21:37:50 8 1006 0 0 NO 0 76 744
21:40:48 8 1006 0 0 NO 0 75.9 737
21:43:45 8 1006 0 0 NO 0 75.9 743
21:46:47 7 1006 0 0 NO 0 76.8 743
21:49:45 7 1006 0 0 NO 0 77.1 744
21:52:45 7 1006 0 0 NO 0 77.5 746
21:55:46 7 1006 0 0 NO 0 78.1 748
21:58:47 7 1006 0 0 NO 0 79.4 743
22:01:47 7 1006 0 0 NO 0 79.5 741
22:04:48 7 1006 0 0 NO 0 80.3 740
22:07:47 7 1006 0 0 NO 0 81.7 743
22:10:47 7 1006 0 0 NO 0 82.2 749
22:13:45 7 1006 0 0 NO 0 82.2 746
22:16:48 7 1006 0 0 NO 0 82.1 746
22:19:47 7 1006 0 0 NO 0 82 752
22:22:49 7 1006 0 0 NO 0 81.8 750
22:25:46 7 1006 0 0 NO 0 81.9 753
22:28:48 7 1006 0 0 NO 0 81.5 750
22:31:47 7 1006 0 0 S 0 81.5 747
22:34:46 7 1006 0 0 S 0 82.3 754
22:37:45 7 1006 0 0 S 0 82.7 750
22:40:47 7 1006 0 0 S 0 82.3 753
22:43:45 7 1006 0 0 S 0 82.1 755
22:46:47 7 1006 0 0 NO 0 82.4 754
22:49:46 7 1006 0 0 NO 0 83.1 759
22:52:48 7 1006 0 0 NO 0 84.9 764
22:55:47 7 1006 0 0 NO 0 85.2 764
22:58:48 7 1006 0 0 NO 0 84.8 759
23:01:47 7 1006 0 0 NO 0 84.1 759
23:04:47 7 1006 0 0 NO 0 83.8 753
23:07:46 7 1006 0 0 NO 0 83.5 761
23:10:49 7 1006 0 0 NO 0 83 764
23:13:46 7 1006 0 0 NO 0 85.5 758
23:16:46 7 1006 0 0 NO 0 86.1 755
23:19:47 6 1006 0 2 SO 0 85.7 752
23:22:49 6 1006 0 0 SO 0 84.9 762
23:25:45 6 1006 0 0 SO 0 84.9 771
23:28:45 6 1006 0 0 N 0 85.4 781
23:31:49 6 1006 0 0 N 0 85.5 792
23:34:46 6 1006 0 0 N 0 85.3 800
23:37:49 6 1006 0 0 N 0 85.5 806
23:40:47 6 1006 0 0 N 0 85.5 806
23:43:46 6 1006 0 0 N 0 85.3 808
23:46:46 6 1006 0 0 N 0 86.1 805
23:49:47 6 1006 0 0 N 0 87.4 802
23:52:49 6 1006 0 0 N 0 88.3 799
23:55:48 6 1006 0 0 N 0 87.8 796
23:58:46 6 1006 0 0 N 0 87.6 790

Letzte Änderung : 22-Jul-2022
Copyright Jens Köhler, Wolfsburg, Obere Dorfstraße 10d